When you browse on this site, cookies collect data to enhance your experience and personalize the content and advertising you see.
Visit our Privacy Policy to learn more. By continuing to use the site, you agree to this use of cookies and data.
  • In Hungary
  • List of Countries
  • For 7 days
  • Water Temperature
  • Satellite Maps
  • Weather Map
  • News
  • Weather Widgets
  • user-avatar
    Login

    Hourly Weather Baku

    Today, 23 January, Wednesday

    Time Temperature Precipitation Wind Pressure Humidity
    00:00 +5°C° 0 mm 9 mps 763 mmHg 77%
    01:00 +5°C° 0 mm 10 mps 763 mmHg 79%
    02:00 +5°C° 0 mm 10 mps 763 mmHg 80%
    03:00 +3°C° 0 mm 10 mps 764 mmHg 82%
    04:00 +3°C° 0 mm 10 mps 764 mmHg 84%
    05:00 +3°C° 0 mm 9 mps 764 mmHg 85%
    06:00 +4°C° 0 mm 8 mps 765 mmHg 87%
    07:00 +4°C° 0 mm 8 mps 765 mmHg 86%
    08:00 +5°C° 0 mm 7 mps 766 mmHg 84%
    09:00 +5°C° 0 mm 6 mps 766 mmHg 83%
    10:00 +7°C° 0 mm 5 mps 766 mmHg 80%
    11:00 +7°C° 0 mm 5 mps 766 mmHg 77%
    12:00 +8°C° 0 mm 4 mps 766 mmHg 75%
    13:00 +9°C° 0 mm 3 mps 766 mmHg 74%
    14:00 +9°C° 0 mm 3 mps 766 mmHg 74%
    15:00 +9°C° 0 mm 3 mps 766 mmHg 74%
    16:00 +9°C° 0 mm 3 mps 766 mmHg 76%
    17:00 +8°C° 0 mm 3 mps 766 mmHg 78%
    18:00 +8°C° 0 mm 3 mps 766 mmHg 80%
    19:00 +8°C° 0 mm 3 mps 766 mmHg 81%
    20:00 +7°C° 0 mm 4 mps 766 mmHg 82%
    21:00 +7°C° 0 mm 4 mps 766 mmHg 83%
    22:00 +6°C° 0 mm 4 mps 766 mmHg 84%
    23:00 +6°C° 0 mm 4 mps 766 mmHg 85%

    Tomorrow, 24 January, Thursday

    Time Temperature Precipitation Wind Pressure Humidity
    00:00 +6°C° 0 mm 4 mps 766 mmHg 86%
    01:00 +6°C° 0 mm 4 mps 766 mmHg 86%
    02:00 +7°C° 0 mm 5 mps 766 mmHg 86%
    03:00 +7°C° 0 mm 5 mps 765 mmHg 86%
    04:00 +7°C° 0 mm 5 mps 765 mmHg 86%
    05:00 +7°C° 0 mm 6 mps 765 mmHg 86%
    06:00 +7°C° 0 mm 6 mps 765 mmHg 86%
    07:00 +7°C° 0 mm 6 mps 765 mmHg 83%
    08:00 +7°C° 0 mm 6 mps 765 mmHg 81%
    09:00 +8°C° 0 mm 7 mps 765 mmHg 78%
    10:00 +8°C° 0 mm 7 mps 765 mmHg 73%
    11:00 +9°C° 0 mm 7 mps 765 mmHg 68%
    12:00 +9°C° 0 mm 7 mps 764 mmHg 63%
    13:00 +9°C° 0 mm 7 mps 764 mmHg 62%
    14:00 +10°C° 0 mm 7 mps 764 mmHg 60%
    15:00 +10°C° 0 mm 7 mps 763 mmHg 58%
    16:00 +9°C° 0 mm 7 mps 763 mmHg 63%
    17:00 +9°C° 0 mm 7 mps 763 mmHg 67%
    18:00 +8°C° 0 mm 7 mps 763 mmHg 71%
    19:00 +8°C° 0 mm 7 mps 763 mmHg 71%
    20:00 +8°C° 0 mm 7 mps 763 mmHg 71%
    21:00 +8°C° 0 mm 7 mps 762 mmHg 71%
    22:00 +7°C° 0 mm 8 mps 762 mmHg 68%
    23:00 +7°C° 0 mm 8 mps 762 mmHg 64%

    Day after tomorrow, 25 January, Friday

    Time Temperature Precipitation Wind Pressure Humidity
    00:00 +6°C° 0 mm 8 mps 761 mmHg 60%
    01:00 +6°C° 0 mm 8 mps 761 mmHg 57%
    02:00 +6°C° 0 mm 8 mps 760 mmHg 54%
    03:00 +6°C° 0 mm 8 mps 760 mmHg 52%
    04:00 +6°C° 0 mm 8 mps 760 mmHg 47%
    05:00 +6°C° 0 mm 9 mps 759 mmHg 43%
    06:00 +6°C° 0 mm 9 mps 759 mmHg 39%
    07:00 +6°C° 0 mm 10 mps 759 mmHg 38%
    08:00 +7°C° 0 mm 10 mps 759 mmHg 38%
    09:00 +7°C° 0 mm 11 mps 759 mmHg 37%
    10:00 +8°C° 0 mm 11 mps 759 mmHg 35%
    11:00 +11°C° 0 mm 11 mps 759 mmHg 32%
    12:00 +12°C° 0 mm 11 mps 758 mmHg 30%
    13:00 +12°C° 0 mm 10 mps 758 mmHg 32%
    14:00 +12°C° 0 mm 9 mps 758 mmHg 34%
    15:00 +12°C° 0 mm 7 mps 757 mmHg 37%
    16:00 +11°C° 0 mm 6 mps 758 mmHg 43%
    17:00 +11°C° 0 mm 4 mps 758 mmHg 49%
    18:00 +10°C° 0 mm 3 mps 758 mmHg 55%
    19:00 +9°C° 0 mm 3 mps 758 mmHg 58%
    20:00 +9°C° 0 mm 2 mps 758 mmHg 61%
    21:00 +8°C° 0 mm 2 mps 759 mmHg 64%
    22:00 +9°C° 0 mm 1 mps 759 mmHg 66%
    23:00 +8°C° 0 mm 1 mps 759 mmHg 68%

    26 January, Saturday

    Time Temperature Precipitation Wind Pressure Humidity
    00:00 +8°C° 0 mm 1 mps 759 mmHg 70%
    01:00 +7°C° 0 mm 0 mps 759 mmHg 71%
    02:00 +7°C° 0 mm 0 mps 759 mmHg 71%
    03:00 +6°C° 0 mm 0 mps 759 mmHg 71%
    04:00 +7°C° 0 mm 1 mps 759 mmHg 71%
    05:00 +7°C° 0 mm 1 mps 759 mmHg 70%
    06:00 +7°C° 0 mm 1 mps 759 mmHg 69%
    07:00 +7°C° 0 mm 2 mps 759 mmHg 64%
    08:00 +8°C° 0 mm 3 mps 759 mmHg 59%
    09:00 +9°C° 0 mm 3 mps 759 mmHg 53%
    10:00 +10°C° 0 mm 5 mps 759 mmHg 45%
    11:00 +12°C° 0 mm 7 mps 758 mmHg 36%
    12:00 +15°C° 0 mm 9 mps 758 mmHg 28%
    13:00 +15°C° 0 mm 9 mps 757 mmHg 27%
    14:00 +14°C° 0 mm 10 mps 757 mmHg 27%
    15:00 +16°C° 0 mm 10 mps 756 mmHg 26%
    16:00 +14°C° 0 mm 10 mps 756 mmHg 28%
    17:00 +13°C° 0 mm 9 mps 756 mmHg 30%
    18:00 +12°C° 0 mm 9 mps 756 mmHg 32%
    19:00 +12°C° 0 mm 9 mps 756 mmHg 34%
    20:00 +12°C° 0 mm 9 mps 756 mmHg 35%
    21:00 +12°C° 0 mm 9 mps 756 mmHg 36%
    22:00 +11°C° 0 mm 8 mps 756 mmHg 36%
    23:00 +11°C° 0 mm 8 mps 756 mmHg 36%

    27 January, Sunday

    Time Temperature Precipitation Wind Pressure Humidity
    00:00 +11°C° 0 mm 7 mps 755 mmHg 37%
    01:00 +11°C° 0 mm 7 mps 755 mmHg 37%
    02:00 +11°C° 0 mm 7 mps 755 mmHg 38%
    03:00 +11°C° 0 mm 7 mps 755 mmHg 38%
    04:00 +11°C° 0 mm 7 mps 755 mmHg 39%
    05:00 +11°C° 0 mm 6 mps 755 mmHg 39%
    06:00 +11°C° 0 mm 6 mps 754 mmHg 40%
    07:00 +13°C° 0 mm 5 mps 755 mmHg 41%
    08:00 +13°C° 0 mm 5 mps 755 mmHg 41%
    09:00 +13°C° 0 mm 5 mps 755 mmHg 42%
    10:00 +15°C° 0 mm 5 mps 755 mmHg 40%
    11:00 +16°C° 0 mm 6 mps 755 mmHg 38%
    12:00 +17°C° 0 mm 6 mps 754 mmHg 35%
    13:00 +17°C° 0 mm 6 mps 754 mmHg 38%
    14:00 +16°C° 0 mm 5 mps 754 mmHg 40%
    15:00 +16°C° 0 mm 5 mps 754 mmHg 42%
    16:00 +14°C° 0 mm 5 mps 755 mmHg 55%
    17:00 +11°C° 0 mm 4 mps 755 mmHg 68%
    18:00 +8°C° 0 mm 4 mps 755 mmHg 81%
    19:00 +7°C° 0 mm 5 mps 756 mmHg 85%
    20:00 +5°C° 0 mm 6 mps 756 mmHg 88%
    21:00 +4°C° 0 mm 6 mps 756 mmHg 92%
    22:00 +4°C° 0 mm 6 mps 757 mmHg 92%
    23:00 +5°C° 0 mm 5 mps 757 mmHg 92%

    28 January, Monday

    Time Temperature Precipitation Wind Pressure Humidity
    00:00 +5°C° 0 mm 5 mps 757 mmHg 92%
    01:00 +5°C° 0 mm 4 mps 757 mmHg 91%
    02:00 +5°C° 0 mm 4 mps 757 mmHg 91%
    03:00 +5°C° 0 mm 3 mps 757 mmHg 91%
    04:00 +6°C° 0 mm 2 mps 757 mmHg 91%
    05:00 +6°C° 0 mm 2 mps 757 mmHg 91%
    06:00 +7°C° 0 mm 1 mps 757 mmHg 91%
    07:00 +7°C° 0 mm 1 mps 757 mmHg 90%
    08:00 +7°C° 0 mm 1 mps 757 mmHg 88%
    09:00 +7°C° 0 mm 1 mps 757 mmHg 87%
    10:00 +8°C° 0 mm 1 mps 757 mmHg 84%
    11:00 +9°C° 0 mm 1 mps 756 mmHg 81%
    12:00 +8°C° 0 mm 2 mps 756 mmHg 78%
    13:00 +8°C° 1.3 mm 3 mps 756 mmHg 79%
    14:00 +8°C° 1.3 mm 4 mps 755 mmHg 79%
    15:00 +8°C° 1.3 mm 5 mps 755 mmHg 79%
    16:00 +7°C° 0.2 mm 5 mps 755 mmHg 81%
    17:00 +7°C° 0.2 mm 5 mps 756 mmHg 83%
    18:00 +6°C° 0.2 mm 5 mps 756 mmHg 85%
    19:00 +5°C° 0.1 mm 6 mps 756 mmHg 84%
    20:00 +5°C° 0.1 mm 7 mps 757 mmHg 83%
    21:00 +5°C° 0.1 mm 7 mps 758 mmHg 82%
    22:00 +5°C° 0 mm 7 mps 758 mmHg 80%
    23:00 +5°C° 0 mm 8 mps 759 mmHg 78%
    Show more